Voltar ao catálogo

IRIDIUM 146

AtivoComunicaçõesPO
NORAD 43254·PAYLOAD·🇺🇸 United States

Lançado Mar 30, 2018 de Vandenberg Space Force Base

Loading…

Próximas Passagens (próximas 24 horas)

TLE

AtualizadoSource: CelesTrak SupGP

Época: Sep 15, 2026, 01:05 UTC

1 43254C 18030F   26258.04548611 -.00003387  00000+0 -12111-2 0  2580
2 43254  86.3913 252.8283 0002289  89.3244 323.0684 14.34221646    11

Acompanhe IRIDIUM 146 em tempo real com AllMySat

Download on the App Store